Location: *
(49.9853°N, 3.5569°E)
Time: 04:35:16
(UTC+00:00)

Okean 1-7 Rocket - Pass Details

Date: 22 September 2019
Orbit: 617 x 649 km, 82.5° (Epoch: 20 October)

Event Time Altitude Azimuth Distance (km) Brightness Sun altitude
Rises 19:23:18 0° 346° (NNW) 2,919 7.5 -16.3°
Reaches altitude 10° 19:25:34 10° 342° (NNW) 2,012 6.7 -16.7°
Maximum altitude 19:29:56 57° 265° (W) 749 4.2 -17.3°
Drops below altitude 10° 19:34:18 10° 187° (S) 2,015 6.0 -18.0°
Enters shadow 19:36:15 - 184° (S) 2,797 6.7 -18.3°
